Temperature
17 19 18 16 16 18 18 18 16 12 10 10 9 7 7 6 6 6 6 5 5 4 3 2 1 1 0 -0 -0 -1 -1 -1 -1 -1 -2 -2 -2 -2 -2 -2 -2 -2 -2 -2
20 17 15 15 15 16 17 17 14 11 10 9 8 7 7 6 5 5 5 5 4 3 3 2 1 -0 -1 -2 -2 -2 -2 -2 -3 -3 -3 -4 -4 -4 -4 -3 -3 -3 -3 -3
18 15 14 15 16 17 16 17 15 13 9 9 8 7 6 6 5 5 5 4 4 3 2 1 0 -1 -2 -3 -3 -3 -3 -4 -4 -4 -4 -4 -4 -5 -5 -5 -4 -3 -4 -4
16 15 15 15 15 15 16 14 13 12 11 11 10 13 8 6 6 6 5 4 4 3 2 0 -1 -2 -3 -4 -4 -4 -4 -5 -5 -5 -6 -6 -6 -6 -6 -6 -6 -5 -5 -5
15 14 15 15 14 13 14 12 12 12 13 12 11 11 11 6 6 6 5 4 3 2 1 -0 -1 -3 -4 -4 -5 -5 -5 -6 -6 -6 -7 -7 -7 -7 -7 -7 -7 -6 -6 -6
14 13 13 13 13 12 12 12 12 12 13 14 13 12 12 7 6 6 5 4 3 2 1 -0 -2 -3 -4 -5 -6 -6 -6 -7 -7 -7 -7 -8 -8 -8 -8 -8 -8 -7 -7 -7
15 14 13 12 14 14 14 16 17 17 16 16 11 11 10 6 5 5 4 3 3 2 0 -1 -2 -4 -5 -6 -7 -7 -7 -7 -8 -8 -8 -8 -8 -9 -9 -9 -8 -8 -8 -8
17 16 13 12 13 13 13 15 16 15 16 16 11 11 8 6 4 4 3 3 2 1 -0 -2 -3 -4 -5 -6 -7 -8 -8 -8 -8 -9 -9 -9 -9 -9 -9 -9 -9 -9 -9 -9
16 15 12 11 11 12 14 13 12 13 13 12 13 9 5 5 5 4 4 3 2 1 -1 -2 -4 -5 -6 -7 -8 -8 -9 -9 -9 -9 -9 -9 -10 -10 -10 -10 -10 -10 -9 -9
13 14 13 11 12 11 12 12 12 13 13 14 15 11 9 5 5 5 4 3 1 0 -2 -3 -4 -5 -7 -7 -8 -8 -9 -9 -10 -10 -10 -10 -10 -10 -10 -10 -10 -10 -10 -10
11 13 14 12 12 12 12 11 11 12 12 12 12 12 7 5 4 4 3 2 0 -1 -2 -3 -4 -6 -7 -8 -8 -9 -9 -10 -10 -10 -10 -11 -11 -11 -11 -11 -11 -11 -11 -10
10 12 14 13 9 9 10 10 11 12 12 11 11 10 6 5 4 3 2 1 -0 -2 -3 -4 -5 -6 -7 -8 -9 -9 -10 -10 -10 -11 -11 -11 -11 -11 -11 -11 -12 -12 -11 -11
10 12 15 15 12 10 9 9 9 9 9 10 10 10 5 4 4 3 2 1 -1 -2 -3 -5 -6 -7 -8 -9 -9 -10 -10 -10 -11 -11 -11 -11 -12 -12 -12 -12 -12 -12 -12 -12
8 11 13 15 13 10 9 8 7 8 9 9 9 9 6 5 4 3 2 0 -1 -3 -4 -5 -6 -7 -8 -9 -10 -10 -10 -11 -11 -11 -11 -12 -12 -12 -13 -13 -13 -13 -12 -12
9 11 10 9 7 7 7 7 7 7 8 8 8 6 6 5 3 2 1 -1 -2 -4 -5 -6 -7 -8 -9 -9 -10 -10 -10 -11 -11 -11 -11 -12 -12 -12 -13 -13 -13 -13 -13 -13
8 9 8 9 6 6 6 6 6 6 6 6 6 6 5 3 2 2 0 -2 -3 -5 -6 -7 -8 -9 -9 -10 -10 -10 -10 -10 -11 -11 -11 -12 -12 -12 -13 -13 -13 -13 -13 -13
8 9 9 10 7 7 9 7 6 6 6 5 5 5 4 3 2 1 -2 -4 -5 -6 -7 -8 -9 -9 -10 -10 -10 -10 -10 -10 -10 -11 -11 -12 -12 -13 -13 -13 -13 -13 -14 -14
7 8 8 8 9 9 8 5 5 5 5 4 4 4 3 2 0 -2 -4 -5 -6 -7 -8 -9 -9 -9 -10 -10 -10 -9 -10 -10 -10 -11 -11 -12 -13 -13 -13 -14 -14 -14 -14 -14
5 7 7 7 10 11 6 4 4 5 5 4 3 3 2 0 0 -1 -5 -6 -7 -8 -9 -9 -9 -9 -9 -9 -9 -9 -10 -10 -10 -11 -12 -12 -13 -13 -14 -14 -14 -14 -14 -14
4 6 7 6 8 10 8 4 3 4 5 3 2 2 1 -0 1 -1 -5 -7 -7 -8 -8 -8 -8 -9 -9 -9 -9 -9 -10 -10 -11 -11 -12 -12 -13 -14 -14 -14 -14 -14 -14 -14
5 6 6 6 7 9 5 3 3 5 6 2 1 0 -1 -1 -2 -5 -6 -7 -7 -7 -7 -8 -8 -8 -9 -9 -9 -9 -10 -11 -11 -11 -12 -12 -13 -14 -14 -14 -14 -14 -14 -14
8 8 7 6 6 8 3 3 5 5 2 1 0 -1 -2 -3 -5 -6 -6 -7 -7 -7 -7 -7 -8 -8 -9 -9 -9 -10 -10 -10 -11 -11 -12 -13 -13 -14 -14 -14 -14 -14 -14 -14
7 8 9 8 8 4 3 3 2 2 1 -0 -1 -2 -3 -4 -5 -6 -7 -7 -7 -7 -7 -8 -8 -8 -8 -9 -9 -10 -10 -10 -11 -11 -12 -13 -14 -14 -14 -14 -14 -14 -14 -14
6 2 5 5 5 2 1 1 1 1 1 -0 -1 -2 -3 -4 -5 -6 -6 -7 -7 -7 -7 -8 -8 -8 -8 -9 -9 -10 -10 -10 -11 -12 -13 -13 -14 -14 -14 -14 -14 -14 -14 -14
8 4 4 5 3 1 0 0 1 1 0 -0 -1 -3 -4 -5 -5 -6 -6 -7 -7 -7 -7 -8 -8 -8 -8 -9 -9 -9 -10 -10 -11 -12 -13 -13 -14 -14 -14 -14 -14 -14 -14 -14
4 4 5 7 4 3 2 1 1 1 0 -1 -2 -3 -4 -5 -5 -6 -6 -7 -7 -7 -7 -7 -8 -8 -8 -9 -9 -9 -10 -10 -11 -12 -13 -13 -14 -14 -14 -14 -14 -15 -15 -14
Wind_Speed
6 7 8 7 5 3 3 4 5 4 4 5 11 13 9 7 6 8 9 11 12 13 13 13 15 17 18 20 21 21 20 20 18 15 15 15 15 14 14 16 19 20 21 21
6 9 6 4 2 4 5 5 4 6 6 5 10 9 7 6 6 7 9 10 12 13 14 15 16 17 18 19 20 20 19 19 17 15 14 13 14 13 14 17 19 20 21 20
8 5 4 4 6 4 3 1 1 5 5 6 8 8 9 6 4 5 7 9 12 13 14 14 15 16 17 18 18 17 19 18 18 19 15 13 12 12 12 14 14 19 21 20
7 4 3 5 6 4 1 1 2 8 8 5 9 5 11 9 4 3 7 11 13 14 14 13 14 16 17 17 17 17 18 17 18 18 16 17 14 14 16 14 14 19 20 19
5 4 5 5 4 4 3 2 3 8 7 4 8 7 6 9 6 2 8 11 13 14 14 13 14 15 15 16 16 16 17 17 17 18 17 16 15 14 14 15 17 17 18 19
5 3 4 4 2 1 2 2 4 4 5 5 4 6 3 5 3 3 8 12 14 14 14 13 13 14 14 15 15 16 17 16 17 17 17 17 17 18 18 18 17 16 14 15
3 3 3 3 3 1 4 4 4 3 4 2 3 5 1 8 4 5 9 13 15 15 14 13 14 15 15 16 16 16 17 16 17 18 17 17 17 18 18 18 17 17 15 15
2 2 4 5 5 5 5 6 5 7 8 5 2 3 4 7 2 4 8 12 14 15 13 13 13 14 15 16 16 16 16 17 17 17 17 17 17 14 14 17 16 16 15 15
4 2 2 4 3 3 2 2 3 5 6 7 4 3 5 4 2 6 10 13 15 15 13 12 13 14 15 15 16 16 16 17 17 18 18 17 17 16 17 17 16 15 15 17
3 2 1 2 2 4 4 1 2 4 7 9 8 3 1 5 2 8 12 15 16 14 12 12 13 14 14 15 15 15 16 16 17 17 16 15 17 16 17 16 17 18 18 20
2 3 0 1 1 2 1 1 1 1 3 6 9 4 5 4 4 9 13 15 15 14 12 13 13 14 14 15 15 15 16 17 17 17 17 17 16 16 17 16 17 17 18 19
2 2 3 1 2 1 1 1 1 4 4 5 8 3 8 3 5 9 13 14 14 12 12 13 14 14 15 15 15 15 16 16 17 17 17 17 16 16 17 17 17 18 18 19
0 2 5 2 3 3 2 2 1 1 4 6 6 3 6 1 7 10 14 15 13 12 13 14 14 14 15 15 15 15 16 16 17 17 17 17 16 17 17 17 17 18 18 18
1 2 4 6 5 1 2 3 3 4 5 6 7 8 4 7 10 14 15 14 12 13 14 15 15 14 15 15 15 15 16 16 16 16 17 16 17 17 17 17 17 17 17 18
1 3 4 6 3 3 5 6 6 7 7 7 7 8 10 8 11 14 14 12 13 15 15 15 15 15 15 15 15 16 16 16 16 16 16 16 17 17 17 17 17 17 17 18
1 2 3 4 1 3 6 7 7 7 6 8 9 9 2 7 10 14 13 11 13 15 15 15 15 15 15 16 16 16 16 17 16 16 16 16 17 17 17 17 17 17 17 17
1 1 3 3 3 6 5 5 8 5 6 5 6 4 6 10 13 14 9 9 13 14 14 14 14 14 15 15 15 16 16 16 16 16 16 16 17 17 17 18 17 17 17 17
2 2 1 4 5 5 2 2 4 5 4 4 5 5 6 10 11 6 4 9 12 12 12 13 13 13 14 14 14 15 15 15 15 16 16 17 17 18 18 18 18 17 16 16
1 2 1 2 5 7 3 5 5 4 3 3 2 4 7 9 10 1 3 6 8 10 11 11 12 13 14 14 14 15 15 15 15 16 17 18 18 18 18 18 18 17 16 16
2 2 3 2 4 5 2 6 5 3 3 5 2 4 7 8 8 6 4 6 8 9 10 11 12 13 13 13 14 14 15 16 16 18 18 19 18 18 18 18 18 16 16 15
3 3 4 5 5 6 5 7 6 3 1 6 2 2 4 4 4 5 5 7 8 9 10 11 12 12 12 13 13 14 15 16 18 18 18 18 18 18 17 17 16 16 15 15
6 5 5 5 5 5 10 9 6 1 6 5 2 0 2 2 3 4 6 7 9 10 11 12 12 13 12 12 13 15 16 17 18 18 18 18 18 16 15 17 16 15 15 14
7 6 4 8 3 3 8 5 4 7 6 4 3 2 1 0 2 4 5 6 8 9 10 11 12 13 13 13 13 15 17 17 18 18 18 18 18 16 16 16 16 15 13 12
5 3 5 6 6 5 7 7 7 6 6 5 5 4 3 2 1 3 4 6 7 9 10 10 12 13 13 14 14 14 16 17 18 18 18 17 17 16 16 14 13 13 13 13
5 8 6 6 3 6 9 9 9 8 8 8 6 5 4 3 2 2 3 5 7 8 9 10 10 12 14 15 15 15 16 17 18 18 17 16 15 16 15 14 13 14 13 14
8 9 8 5 8 8 9 13 12 11 9 8 7 6 5 3 2 1 3 4 6 8 9 10 11 12 14 14 15 15 16 17 17 16 16 14 14 14 13 13 13 16 16 19
Wind_Direction
34 66 55 24 2 27 110 139 126 97 97 101 126 135 135 123 89 64 46 33 23 17 13 11 8 7 4 1 359 356 354 353 353 350 345 342 339 339 339 340 339 339 339 339
89 59 24 7 45 128 132 133 120 115 113 119 143 145 142 123 82 56 37 25 14 5 3 4 3 3 1 358 356 352 352 350 351 347 340 337 333 333 335 335 334 337 337 337
87 56 16 57 74 122 124 1 211 166 133 144 155 180 182 156 116 71 42 23 13 5 357 356 357 358 358 357 355 350 349 347 348 346 341 339 337 336 339 338 335 334 334 334
77 50 47 61 49 360 187 20 239 178 184 199 207 254 184 183 170 51 24 15 7 1 354 353 353 355 356 355 352 349 347 346 348 347 347 344 342 340 337 336 331 331 332 332
86 43 38 45 24 353 355 349 227 204 221 228 210 258 163 180 213 352 10 6 1 356 351 349 352 352 352 353 351 348 346 347 349 348 348 345 342 338 334 335 333 334 332 332
89 65 27 360 325 323 299 160 135 171 212 250 206 229 189 177 199 2 2 358 354 352 348 346 348 350 350 351 351 348 346 347 348 348 347 345 343 340 337 338 336 335 332 331
114 83 34 343 316 34 354 312 292 281 255 272 120 237 37 127 98 19 353 348 348 347 344 344 346 348 349 350 350 347 347 346 348 347 347 343 342 339 337 337 334 334 331 332
19 95 31 18 16 351 10 354 355 316 308 315 209 265 123 142 99 1 348 344 344 346 345 344 346 347 347 347 348 347 346 345 346 346 344 341 342 338 335 334 332 330 329 328
9 32 78 33 15 336 345 29 358 286 285 280 251 146 155 184 265 343 347 348 348 347 345 344 344 347 347 347 347 346 344 344 345 344 342 340 340 338 335 332 331 331 329 328
353 309 50 355 191 64 33 81 270 307 318 308 301 271 174 170 325 344 346 348 347 347 346 345 346 348 347 346 345 345 344 343 342 342 341 337 337 336 334 331 332 331 330 329
329 303 238 158 43 351 34 101 68 303 288 296 307 343 103 110 11 346 345 347 347 347 347 346 347 348 346 346 346 344 343 342 341 341 339 337 336 335 334 334 333 331 330 330
10 308 287 162 86 8 54 68 271 301 295 261 285 315 121 90 3 347 344 347 349 348 347 345 345 346 346 346 344 342 341 341 340 338 336 335 335 335 335 335 334 332 331 330
352 302 304 227 174 150 120 105 113 273 273 258 266 309 131 350 343 348 346 347 349 349 347 346 346 346 345 343 341 339 339 339 337 336 335 334 335 335 335 334 333 333 332 330
198 263 268 296 323 29 239 209 203 229 253 266 256 293 315 334 341 343 345 347 347 349 348 346 345 344 343 340 338 337 336 336 335 334 333 334 334 333 332 332 333 333 332 331
293 267 260 273 294 269 265 251 226 227 246 264 291 299 320 342 338 336 341 347 347 348 346 345 344 342 340 339 337 335 333 333 332 331 331 331 330 330 329 330 332 333 333 332
356 272 287 270 224 280 268 247 233 234 239 252 279 297 360 333 331 335 345 348 345 344 344 343 342 340 338 336 334 331 330 329 328 326 325 326 327 328 328 328 329 331 332 332
155 248 289 280 312 296 272 228 204 207 213 240 278 314 331 325 334 337 345 347 344 343 342 341 339 336 333 332 329 327 324 323 322 321 321 322 324 325 326 326 327 329 330 330
169 191 255 299 316 290 82 92 191 210 229 233 260 295 320 324 325 337 10 348 342 341 339 336 334 330 328 326 324 320 318 318 319 319 320 323 324 323 323 324 325 326 327 327
306 205 202 273 287 272 157 181 182 214 240 192 236 306 325 329 310 231 43 354 340 339 336 333 329 326 324 325 324 319 318 320 321 323 324 324 324 322 323 323 323 324 325 324
77 182 213 202 269 279 131 150 153 191 236 159 204 312 327 331 330 359 24 345 345 344 340 334 328 326 326 327 325 321 322 325 327 327 324 323 324 324 323 321 322 323 322 321
186 179 205 221 248 275 136 146 161 225 40 145 185 311 323 326 320 338 347 350 351 345 340 334 329 328 329 328 324 322 325 329 328 325 324 325 326 326 322 322 323 322 322 322
207 198 209 197 229 260 147 158 194 128 120 146 160 232 307 314 331 344 351 351 348 342 339 336 330 327 328 327 326 326 330 330 327 326 327 328 329 328 325 326 326 326 325 324
220 217 221 208 233 93 166 166 131 132 144 148 152 142 139 343 359 356 351 348 343 339 335 333 328 324 328 332 334 331 331 330 329 329 331 331 331 331 331 331 331 331 330 327
220 200 225 247 240 190 173 148 141 139 134 130 129 130 126 116 56 7 352 345 340 336 332 329 327 327 329 334 337 335 332 332 331 332 334 335 335 336 338 339 339 338 336 333
219 179 213 239 196 158 178 172 154 136 130 130 124 120 119 121 91 19 348 339 333 327 327 326 325 323 329 334 336 338 337 336 335 335 338 338 339 341 344 345 345 344 343 343
193 189 193 218 181 173 176 166 155 149 149 147 142 133 117 109 104 23 341 328 321 320 322 322 324 329 332 334 336 339 341 340 338 339 341 341 344 347 347 344 343 347 349 351
Height
1571 1571 1576 1580 1579 1576 1575 1577 1585 1598 1605 1606 1609 1615 1620 1622 1621 1621 1620 1619 1617 1615 1613 1609 1604 1599 1593 1587 1581 1575 1569 1562 1556 1550 1544 1538 1533 1529 1525 1520 1516 1511 1506 1501
1573 1580 1586 1584 1582 1580 1579 1581 1590 1603 1607 1607 1612 1616 1620 1622 1622 1622 1621 1619 1617 1614 1611 1608 1603 1598 1593 1587 1581 1574 1568 1562 1555 1549 1544 1538 1533 1527 1522 1517 1513 1508 1503 1498
1577 1588 1588 1586 1583 1582 1583 1583 1586 1595 1607 1609 1611 1615 1618 1621 1622 1622 1621 1619 1617 1614 1611 1607 1602 1598 1592 1586 1579 1573 1567 1560 1554 1548 1542 1536 1530 1525 1520 1514 1509 1505 1500 1495
1585 1590 1589 1587 1588 1586 1584 1589 1590 1594 1596 1595 1603 1587 1606 1616 1619 1619 1619 1618 1616 1613 1610 1606 1601 1596 1590 1584 1577 1571 1565 1559 1552 1546 1539 1534 1528 1523 1518 1512 1507 1502 1497 1493
1589 1591 1590 1589 1591 1591 1588 1592 1590 1590 1588 1589 1596 1593 1593 1613 1614 1617 1618 1617 1615 1613 1609 1605 1600 1595 1589 1583 1576 1569 1563 1557 1551 1544 1538 1533 1528 1522 1516 1511 1505 1499 1494 1490
1592 1595 1595 1594 1594 1593 1592 1591 1591 1590 1586 1582 1583 1589 1583 1607 1611 1616 1617 1616 1614 1611 1607 1603 1599 1594 1588 1581 1575 1568 1561 1555 1549 1543 1537 1532 1526 1520 1514 1508 1502 1496 1491 1487
1591 1594 1596 1596 1591 1590 1588 1582 1575 1572 1571 1570 1591 1589 1594 1611 1616 1618 1618 1615 1613 1609 1606 1601 1597 1592 1586 1580 1573 1567 1560 1554 1548 1542 1536 1531 1525 1519 1513 1507 1501 1495 1489 1484
1586 1589 1598 1598 1597 1595 1592 1588 1586 1584 1571 1568 1587 1587 1604 1614 1617 1618 1617 1615 1612 1608 1604 1600 1596 1590 1584 1578 1571 1565 1559 1553 1547 1540 1535 1529 1524 1518 1512 1506 1500 1494 1488 1482
1590 1592 1599 1600 1600 1598 1593 1593 1597 1592 1585 1586 1576 1596 1612 1616 1616 1616 1615 1613 1610 1606 1603 1599 1594 1589 1583 1576 1570 1563 1557 1551 1545 1539 1533 1527 1521 1515 1509 1504 1498 1492 1486 1480
1600 1596 1598 1601 1600 1601 1599 1599 1597 1592 1588 1579 1567 1583 1594 1611 1613 1615 1613 1611 1608 1605 1601 1597 1593 1587 1581 1575 1568 1562 1556 1550 1543 1537 1531 1525 1519 1513 1507 1501 1495 1489 1483 1477
1603 1598 1595 1598 1597 1598 1600 1601 1599 1598 1597 1591 1581 1582 1606 1611 1614 1614 1613 1610 1607 1603 1599 1596 1591 1585 1580 1573 1567 1560 1554 1548 1541 1535 1528 1522 1516 1510 1504 1499 1493 1486 1480 1474
1606 1600 1592 1596 1604 1606 1603 1602 1601 1598 1594 1597 1593 1594 1611 1613 1614 1614 1611 1609 1605 1602 1598 1594 1589 1584 1578 1571 1565 1559 1552 1546 1539 1533 1526 1520 1514 1508 1502 1496 1490 1484 1478 1472
1606 1601 1588 1586 1599 1605 1604 1606 1606 1606 1604 1600 1597 1595 1612 1612 1612 1611 1609 1607 1604 1601 1597 1593 1588 1582 1576 1570 1563 1557 1551 1544 1538 1531 1524 1518 1512 1506 1499 1493 1487 1481 1475 1469
1607 1602 1597 1591 1591 1601 1603 1607 1609 1607 1602 1596 1597 1596 1605 1608 1610 1609 1608 1605 1603 1600 1596 1591 1586 1580 1574 1568 1562 1555 1549 1542 1535 1529 1522 1516 1510 1503 1497 1491 1485 1479 1473 1467
1607 1602 1602 1602 1607 1608 1606 1606 1608 1608 1603 1602 1598 1604 1605 1609 1610 1609 1606 1604 1601 1598 1594 1589 1584 1578 1572 1566 1560 1553 1547 1540 1533 1527 1520 1514 1508 1501 1495 1489 1483 1477 1470 1464
1607 1605 1605 1601 1608 1608 1606 1605 1607 1607 1607 1606 1605 1605 1609 1610 1609 1607 1605 1603 1600 1597 1592 1587 1582 1576 1570 1564 1558 1551 1544 1538 1531 1524 1518 1512 1505 1499 1492 1486 1480 1474 1468 1462
1607 1605 1602 1595 1604 1604 1593 1598 1603 1604 1605 1606 1604 1607 1609 1608 1607 1605 1604 1602 1599 1595 1591 1586 1580 1575 1568 1562 1556 1549 1542 1536 1529 1522 1516 1509 1503 1496 1490 1484 1478 1472 1466 1460
1608 1606 1606 1601 1597 1595 1594 1604 1603 1604 1604 1606 1607 1608 1608 1608 1606 1604 1602 1601 1597 1593 1588 1583 1578 1572 1567 1560 1554 1548 1541 1534 1527 1520 1513 1507 1500 1494 1487 1481 1475 1470 1464 1458
1610 1607 1606 1605 1592 1582 1600 1602 1603 1603 1602 1606 1607 1607 1607 1606 1603 1601 1600 1598 1595 1591 1586 1581 1576 1570 1565 1558 1552 1545 1539 1532 1525 1518 1512 1505 1498 1491 1484 1478 1473 1467 1461 1456
1612 1610 1606 1608 1597 1585 1590 1600 1601 1604 1599 1605 1606 1606 1606 1604 1600 1601 1599 1596 1593 1589 1584 1580 1574 1569 1563 1557 1550 1544 1537 1530 1524 1517 1509 1502 1495 1489 1482 1476 1470 1464 1459 1454
1607 1607 1606 1603 1598 1581 1595 1599 1602 1599 1597 1604 1604 1604 1604 1603 1603 1601 1597 1594 1591 1587 1583 1578 1573 1567 1561 1555 1549 1542 1536 1529 1522 1515 1507 1500 1493 1486 1480 1474 1468 1462 1457 1452
1595 1596 1598 1600 1597 1588 1594 1597 1597 1596 1599 1601 1602 1602 1601 1600 1599 1597 1595 1592 1589 1585 1581 1577 1572 1566 1560 1554 1547 1541 1535 1528 1520 1513 1505 1498 1491 1485 1478 1472 1466 1461 1456 1451
1592 1589 1586 1588 1585 1588 1591 1592 1594 1596 1598 1599 1600 1599 1598 1597 1596 1595 1593 1590 1587 1584 1580 1575 1571 1565 1559 1553 1546 1540 1533 1526 1518 1511 1503 1496 1490 1484 1477 1471 1465 1459 1455 1450
1589 1590 1589 1586 1584 1587 1589 1591 1593 1595 1596 1597 1597 1596 1595 1595 1594 1593 1591 1589 1586 1583 1579 1574 1569 1564 1558 1552 1546 1540 1532 1525 1517 1509 1502 1495 1489 1483 1477 1471 1465 1459 1454 1449
1579 1585 1584 1581 1583 1586 1587 1589 1591 1593 1594 1595 1594 1594 1593 1593 1592 1591 1590 1588 1585 1582 1578 1573 1568 1562 1557 1551 1545 1539 1532 1524 1516 1509 1501 1495 1489 1483 1476 1471 1465 1460 1455 1451
1574 1575 1575 1571 1574 1578 1582 1585 1589 1591 1592 1592 1592 1592 1592 1591 1591 1590 1588 1586 1584 1581 1577 1572 1567 1562 1557 1551 1545 1538 1531 1524 1516 1508 1501 1495 1489 1482 1476 1471 1465 1461 1456 1451